Regional Weather Roundup
Issued by NWS Grand Forks, ND

Home | Current Version | Previous Version | Text Only | Print | Product List | Glossary On
Versions: 1 2 3 4 5 6 7 8 9 10 11 12 13 14 15 16 17 18 19 20 21 22 23 24 25 26 27 28 29 30 31 32 33 34 35 36 37 38 39 40 41 42 43 44 45 46 47 48 49 50
000
ASUS43 KFGF 230331
RWRFGF
PRAIRIE TO PINES  WEATHER ROUNDUP
NATIONAL WEATHER SERVICE EASTERN NORTH DAKOTA/GRAND FORKS ND
900 PM CST MON DEC 22 2014

 **SATELLITE DATA USED TO AUGMENT SKY COVER AT AUTOMATED STATIONS**
 *****  WEATHER ACROSS EASTERN NORTH DAKOTA  *****

CITY           SKY/WX    TMP DP  RH WIND       PRES   REMARKS
GRAND FORKS    DRIZZLE   36  34  93 N7        29.71R FOG
GRAND FRKS AFB CLOUDY    34  34 100 NE8       29.71R FOG
DEVILS LAKE    CLOUDY    34  30  86 NE13      29.72R WCI  25
FARGO          LGT RAIN  36  34  92 NE7       29.66R
WAHPETON ARPT  CLOUDY    32  32 100 E7        29.63R
$$

 ***** WEATHER ACROSS CENTRAL AND WESTERN NORTH DAKOTA  *****

CITY           SKY/WX    TMP DP  RH WIND       PRES   REMARKS
BISMARCK       LGT SNOW  30  28  92 N13G23    29.72R FOG     WCI  20
MINOT          CLOUDY    30  28  92 NW18      29.79R FOG     WCI  18
JAMESTOWN      CLOUDY    34  33  96 NE10      29.64R FOG
MINOT AFB      FRZ DRZL  30  30 100 N12       29.80R WCI  21
GARRISON         N/A     28  27  96 N18       29.75R WCI  15
WILLISTON      CLOUDY    27  22  81 NW15      29.87R WCI  15
DICKINSON      LGT SNOW  25  21  85 NW17      29.76R FOG     WCI  12
HETTINGER      LGT SNOW  24  20  84 NW20G29   29.76R FOG     WCI  10
$$

 *****  OTHER AIRPORT OBSERVATIONS IN OUR AREA  *****

CITY           SKY/WX    TMP DP  RH WIND       PRES   REMARKS
WALHALLA       FOG       32  32 100 N13       29.77R VSB 1/2 WCI  22
GRAFTON AIRPOR NOT AVBL
VALLEY CITY AR CLOUDY    34  34 100 E9        29.65R FOG
CANDO          CLOUDY    32  32 100 N13G21    29.75R FOG     WCI  22
CAVALIER APRT  LGT SNOW  32  32 100 N9        29.75R WCI  24
GWINNER        CLOUDY    34  34 100 NE10      29.63R
SHEYENNE NWR     N/A     34  34  99 E7        29.95S
ROLLA          NOT AVBL
 ***** THE ABOVE OBSERVATIONS ARE NON NWS ARE NOT QUALITY
       CONTROLLED AND MAY MIS-REPORT RAIN FOR SNOW...
$$

  *****  WEATHER ACROSS NORTHERN MINNESOTA  *****

CITY           SKY/WX    TMP DP  RH WIND       PRES   REMARKS
FLAG ISLAND    CLOUDY    34  34 100 E5        29.75R FOG
WARROAD        CLOUDY    34  28  80 NE6       29.75R FOG
ROSEAU         CLOUDY    34  30  86 NE7       29.74R FOG
HALLOCK        DRIZZLE   36  34  93 NE5       29.74R
THF RVR FALLS  CLOUDY    36  34  93 NE7       29.71R
BAUDETTE       CLOUDY    33  32  96 E6        29.73R
WASKISH        MIX PCPN  34  34 100 CALM      29.73R
CROOKSTON      CLOUDY    36  34  93 E5        29.71R
STEPHEN NDAWN    N/A     34  34 100 NE6         N/A
GREENBUSH NDAW   N/A     34  34 100 NE8         N/A
$$
  *****  WEATHER ACROSS CENTRAL AND WEST MINNESOTA  *****

CITY           SKY/WX    TMP DP  RH WIND       PRES   REMARKS
FOSSTON        DRIZZLE   32  32 100 E5        29.69R
BEMIDJI        CLOUDY    33  32  98 E7        29.68S FOG
PARK RAPIDS    LGT SNOW  34  32  92 E5        29.66R FOG
ELBOW LAKE     LGT SNOW  32  32  99 E8        29.61R WCI  25
WADENA         LGT SNOW  32  30  93 E7        29.64R
DETROIT LAKES  CLOUDY    34  32  93 E6        29.66R
MOORHEAD       RAIN      36  36 100 NE5       29.67R
FERGUS FALLS   LGT RAIN  34  34 100 E6        29.65R
MORRIS MN      LGT SNOW  34  34 100 E12       29.59R
STAPLES        MIX PCPN  32  32 100 CALM      29.65R
$$
  *****  WEATHER ELSEWHERE ACROSS MINNESOTA  *****

CITY           SKY/WX    TMP DP  RH WIND       PRES   REMARKS
DULUTH         CLOUDY    34  32  92 E9        29.71S FOG
INTRNTL FALLS  CLOUDY    33  32  96 NE5       29.74R
ELY            CLOUDY    34  32  93 E3        29.75S FOG
CLOQUET        CLOUDY    34  34 100 E7        29.71R FOG
WHEATON        LGT SNOW  30  30 100 E9        29.63R WCI  22
BRAINERD       LGT RAIN  34  33  96 E5        29.66S FOG
HIBBING        CLOUDY    35  32  88 E7        29.72R FOG
ALEXANDRIA     LGT SNOW  33  32  96 E12       29.61S FOG     WCI  24
SAINT CLOUD    LGT RAIN  37  33  85 E8        29.63R FOG
MINNEAPOLIS    LGT RAIN  36  33  89 E12       29.61S FOG
$$

  *****  WEATHER ACROSS SOUTH DAKOTA  *****

CITY           SKY/WX    TMP DP  RH WIND       PRES   REMARKS
SIOUX FALLS    LGT RAIN  37  35  92 E12       29.47R
BROOKINGS      NOT AVBL
WATERTOWN      CLOUDY    34  32  92 E10       29.52R FOG
HURON          FOG       32  32 100 NW5       29.50R VSB 1/4
SISSETON         N/A     33  33 100 E9        29.58R
ABERDEEN       LGT RAIN  35  33  92 NE12      29.55R
MITCHELL       CLOUDY    34  33  96 NW9       29.51S
PIERRE         FLURRIES  31  28  89 MISG      29.57R
MOBRIDGE       LGT SNOW  32  29  88 N22G29    29.59R FOG     WCI  19
RAPID CITY     LGT SNOW  30  26  85 N32G44    29.67R VSB 1   WCI  14
$$

  *****  SOME WEATHER IN NEARBY STATES *****

CITY           SKY/WX    TMP DP  RH WIND       PRES   REMARKS
GLASGOW MT     CLOUDY    29  24  82 NW18      29.96R WCI  16
GREAT FALLS MT CLOUDY    33  24  69 W7        30.10R
CHEYENNE WY    MOCLDY    24  16  71 NW14G24   29.77R WCI  12
SCOTTSBLUFF NE MOCLDY    33  24  69 NW23G32   29.71S WCI  21
OMAHA NE       LGT RAIN  38  36  92 NW14      29.47R FOG
DES MOINES IA  LGT RAIN  40  37  89 E8        29.45S FOG
DAVENPORT IA   LGT RAIN  39  38  96 E9        29.52F FOG
CHICAGO IL     LGT RAIN  40  38  93 SE15      29.63F FOG
EAU CLAIRE WI  LGT SNOW  33  31  92 E10       29.65S FOG     WCI  25
LA CROSSE WI   CLOUDY    36  33  89 E13       29.60F
$$

  *****  SOME NATIONAL WEATHER *****

CITY           SKY/WX    TMP DP  RH WIND       PRES   REMARKS
LA GUARDIA NY  LGT RAIN  43  41  93 NE7       30.21R FOG
RALEIGH NC     FOG       37  35  92 N6        30.06S VSB 1/4
ATLANTA GA     CLOUDY    45  43  93 E12       29.92S VSB 1
NEW ORLEANS LA CLOUDY    69  66  90 S12       29.74S FOG
OKLAHOMA CITY  MOCLDY    47  35  63 N9        29.68R
ALBUQUERQUE NM MOCLDY    45  31  58 N8        29.77R
SALT LAKE CITY CLOUDY    39  30  70 N21       30.11R
LOS ANGELES CA PTCLDY    58  57  97 CALM      29.96S FOG
BOISE ID       CLEAR     37  28  70 NW9       30.30R
SEATTLE WA     MOCLDY    47  39  74 E3        30.36S
$$

*** WEATHER ACROSS MANITOBA...SASKATCHEWAN AND ONTARIO ***
                ***ONTARIO***

CITY           SKY/WX    TMP DP  RH WIND       PRES   REMARKS
GERALDTON      LGT SNOW N/A N/A N/A SE5         N/A  VSB 1
THUNDER BAY    CLOUDY    34  34 100 CALM      29.85  FOG
SIOUX LOOKOUT  LGT SNOW  32  32 100 E5        29.79
TORONTO        CLOUDY    34  32  93 E7        30.04
BIG TROUT LK   CLOUDY    28  28 100 N2        29.91R FOG
PICKLE LAKE    NOT AVBL
DRYDEN         SNOW      32  32 100 NE5       29.78R VSB 1/2
KENORA         SNOW      32  32 100 E6        29.76  VSB 3/8
$$
                *** MANITOBA***

CITY           SKY/WX    TMP DP  RH WIND       PRES   REMARKS
BRANDON        CLOUDY    28  28 100 N9        29.84  WCI  20
DAUPHIN        LGT SNOW  28  28 100 N12       29.91R WCI  18
ISLAND LAKE    LGT SNOW N/A N/A N/A N8          N/A  FOG
PILOT MOUND      N/A     30  30 100 N14         N/A  WCI  20
THE PAS        LGT SNOW  21  21 100 N5        29.98  FOG     WCI  15
THOMPSON       PTCLDY     3   0  85 N5        30.03R WCI  -6
WINNIPEG       DRZL/FOG  32  32 100 N13       29.81  VSB 1/2 WCI  22
LYNN LAKE      LGT SNOW   9   7  92 CALM      30.02R
CHURCHILL      FLURRIES  14  12  92 N15       30.10  WCI  -1
GILLAM         FLURRIES  16  14  93 N6        30.04  WCI   7
$$
                ***SASKATCHEWAN***

CITY           SKY/WX    TMP DP  RH WIND       PRES   REMARKS
ESTEVAN        FLURRIES  25  25 100 N12       29.87  WCI  14
KINDERSLEY     CLOUDY    28  27  93 NW9G17    30.00  WCI  20
LLOYDMINSTER   CLOUDY    25  25 100 NW10      29.97R WCI  15
PRINCE ALBERT  FLURRIES  21  21 100 W6        29.98  WCI  14
REGINA         CLOUDY    21  21 100 NW12      29.95R WCI   9
YORKTON          N/A     25  25 100 N10       29.92R WCI  15
N. BATTLEFORD  CLOUDY    23  23 100 NW10      30.00R WCI  12
LA RONGE       FLURRIES  19  18  93 NW2       29.98
SASKATOON      FLURRIES  21  19  93 NW3       30.00R
SWIFT CURRENT  CLOUDY    23  21  93 NW13      29.97R WCI  11
$$
NOTE: THESE ARE AUTOMATED STATIONS WITH LIMITED QUALITY CONTROL
      "FAIR" INDICATES FEW OR NO CLOUDS BELOW 12,000 FEET WITH NO
      SIGNIFICANT WEATHER AND/OR OBSTRUCTIONS TO VISIBILITY.
      SKY/WX - SKY CONDITION AND SIGNIFICANT WEATHER.
      TMP - AIR TEMPERATURE.    DP   - DEWPOINT TEMPERATURE.
      RH  - RELATIVE HUMIDITY.  PRES - PRESSURE.
      HX  - HEAT INDEX.         WCI  - WIND CHILL INDEX.
$



USA.gov is the U.S. government's official web portal to all federal, state and local government web resources and services.